Overview Statistics Trail Chart Weather Telemetry Raw packets
 

This is the latest recevied weather packets stored in our database for station/object WD7OO. If no packets are shown the sender has not sent any weather packets the latest 10 day(s).

<< 1 2 3 4 5 >>
Time Temp. Humidity Pressure Rain* Wind** Luminosity Snow
1788632992 29.44° C 79% 1014.5 hPa 0 mm - 148 W/m² -
1788632691 30° C 78% 1014.3 hPa 0 mm - 176 W/m² -
1788632386 28.89° C 80% 1014.4 hPa 0 mm - 781 W/m² -
1788632081 28.89° C 82% 1014.7 hPa 0 mm - 681 W/m² -
1788631781 28.89° C 81% 1014.3 hPa 0 mm - 108 W/m² -
1788631475 29.44° C 78% 1014.5 hPa 0 mm - 152 W/m² -
1788631170 30° C 74% 1014.6 hPa 0 mm - 188 W/m² -
1788630870 30° C 76% 1014.5 hPa 0 mm - 796 W/m² -
1788630565 29.44° C 79% 1014.7 hPa 0 mm - 753 W/m² -
1788630261 28.89° C 80% 1014.6 hPa 0 mm - 721 W/m² -
1788629956 28.89° C 82% 1014.7 hPa 0 mm - 188 W/m² -
1788629653 29.44° C 81% 1014.5 hPa 0 mm - 122 W/m² -
1788629353 28.89° C 76% 1014.7 hPa 0 mm - 217 W/m² -
1788629051 29.44° C 77% 1014.9 hPa 0 mm - 856 W/m² -
1788628747 29.44° C 79% 1014.8 hPa 0 mm - 652 W/m² -
1788628444 29.44° C 77% 1014.8 hPa 0 mm - 248 W/m² -
1788628140 30° C 77% 1014.6 hPa 0 mm - 599 W/m² -
1788627835 30° C 75% 1014.7 hPa 0 mm - 743 W/m² -
1788627534 29.44° C 78% 1015.2 hPa 0 mm - 734 W/m² -
1788627230 28.89° C 76% 1014.9 hPa 0 mm - 691 W/m² -
1788626924 28.89° C 79% 1014.9 hPa 0 mm - 413 W/m² -
1788626619 29.44° C 76% 1014.9 hPa 0 mm - 491 W/m² -
1788626315 28.89° C 79% 1015.1 hPa 0 mm - 711 W/m² -
1788626011 28.89° C 80% 1014.8 hPa 0 mm - 698 W/m² -
1788625707 28.33° C 81% 1015.2 hPa 0 mm - 708 W/m² -

* Rain latest hour (hover to see other rain measurements)
** Current wind speed in m/s (hover to see current wind gust speed)